Regional Weather Roundup
Issued by NWS

Home | Current Version | Previous Version | Text Only | Print | Product List | Glossary On
Versions: 1 2 3 4 5 6 7 8 9 10 11 12 13 14 15 16 17 18 19 20 21 22 23 24 25 26 27 28 29 30 31 32 33 34 35 36 37 38 39 40 41 42 43 44 45 46 47 48 49 50
000
ASUS43 KLSX 231159
RWRMO

WEATHER SUMMARY FOR MISSOURI
NATIONAL WEATHER SERVICE SPRINGFIELD MO
700 AM CDT SAT MAY 23 2015

NOTE: "FAIR" INDICATES FEW OR NO CLOUDS BELOW 12,000 FEET WITH NO
       SIGNIFICANT WEATHER AND/OR OBSTRUCTIONS TO VISIBILITY.
       CURRENT SKY AND/OR WEATHER CONDITIONS ARE NOT AVAILABLE FOR
       CHILLICOTHE AND FARMINGTON.

MOZ001>031-035>038-043-044-053-054-231300-
...NORTHERN AND WESTERN MISSOURI...

CITY           SKY/WX    TMP DP  RH WIND       PRES   REMARKS
KANSAS CTY INT LGT RAIN  57  54  89 S9G17     30.23R
6HR MIN TEMP:  57; 6HR MAX TEMP:  61; 6HR PCP: TRACE;

KANSAS C DTWN  LGT RAIN  58  53  84 S5        30.22R
6HR MIN TEMP:  58; 6HR MAX TEMP:  64; 6HR PCP:  0.02;

LEE`S SUMMIT   CLOUDY    59  51  75 S7        30.24R
6HR MIN TEMP:  59; 6HR MAX TEMP:  62; 6HR PCP: TRACE;

ST JOSEPH      LGT RAIN  57  55  93 CALM      30.22S
6HR MIN TEMP:  56; 6HR MAX TEMP:  60; 6HR PCP:  0.14;

KIRKSVILLE     CLOUDY    58  55  90 SE5       30.28R
6HR MIN TEMP:  50; 6HR MAX TEMP:  59;


$$
MOZ066>068-077>081-088>096-101>105-231300-
...SOUTHWEST MISSOURI...

CITY           SKY/WX    TMP DP  RH WIND       PRES   REMARKS
SPRINGFIELD    CLOUDY    60  49  66 S13       30.24R
6HR MIN TEMP:  59; 6HR MAX TEMP:  60;

JOPLIN         LGT RAIN  57  55  93 E6        30.23R FOG
6HR MIN TEMP:  57; 6HR MAX TEMP:  61; 6HR PCP:  0.05;


$$
MOZ032>034-039>042-045>050-055>058-069>072-231300-
...CENTRAL MISSOURI...

CITY           SKY/WX    TMP DP  RH WIND       PRES   REMARKS
COLUMBIA       PTSUNNY   59  53  80 SE6       30.28R
6HR MIN TEMP:  58; 6HR MAX TEMP:  62;

JEFFERSON CITY CLOUDY    60  54  80 SE5       30.28R
6HR MIN TEMP:  58; 6HR MAX TEMP:  62;

ROLLA          CLOUDY    59  50  72 SE9       30.27S
6HR MIN TEMP:  56; 6HR MAX TEMP:  60;

SEDALIA        CLOUDY    60  51  72 SE7       30.26R
6HR MIN TEMP:  60; 6HR MAX TEMP:  62; 6HR PCP: TRACE;

OSAGE BEACH    CLOUDY    59  48  67 E5        30.26S

$$
MOZ051-052-059>065-231300-
...EAST CENTRAL MISSOURI...

CITY           SKY/WX    TMP DP  RH WIND       PRES   REMARKS
ST LOUIS INTL  PTSUNNY   64  56  75 CALM      30.32R
6HR MIN TEMP:  63; 6HR MAX TEMP:  67; 6HR PCP: TRACE;

SPIRIT OF STL  CLOUDY    60  58  92 CALM      30.30R
6HR MIN TEMP:  58; 6HR MAX TEMP:  61; 6HR PCP:  0.01;

ST CHARLES     PTSUNNY   61  59  93 CALM      30.30R
6HR MIN TEMP:  58; 6HR MAX TEMP:  62; 6HR PCP: TRACE;


$$
MOZ072>076-082>087-097>100-106>115-231300-
...SOUTH CENTRAL AND SOUTHEAST MISSOURI...

CITY           SKY/WX    TMP DP  RH WIND       PRES   REMARKS
CAPE GIRARDEAU PTSUNNY   60  57  89 NE3       30.32R
6HR MIN TEMP:  58; 6HR MAX TEMP:  60;

FARMINGTON     PTSUNNY   57  54  88 CALM      30.35R
6HR MIN TEMP:  57; 6HR MAX TEMP:  59;

POPLAR BLUFF   CLOUDY    61  56  83 CALM      30.29R
6HR MIN TEMP:  58; 6HR MAX TEMP:  61;

WEST PLAINS    CLOUDY    59  48  67 E5        30.29R
6HR MIN TEMP:  58; 6HR MAX TEMP:  59;


$$



USA.gov is the U.S. government's official web portal to all federal, state and local government web resources and services.